Weather forecasts are calculated to a 100 metre elevation grid, providing ultimate accuracy for high elevation routes. See the “severe weather” column for any noteworthy conditions.
For use of the snow symbols: HWC = high water content (wet snow). MWC = moderate water content. NWC = low water content (powder type). Confidence of snow accumulation is increased during incidence of NWC.


Time. Apparent Temperature Rain Cloud Dir Avg. Wind Gust. Wind Snow Accum. Chance of settle. Freezing height(beta) Dew Point Severe Weather
Thu 08th 11:00 14.7°C 0.0 mm 71% 9 mph 18 mph 0.00 cm % 1,961m 9.9°C
12:00 14.4°C 0.0 mm 68% 9 mph 18 mph 0.00 cm % 1,923m 9.4°C
13:00 14.2°C 0.0 mm 53% 9 mph 18 mph 0.00 cm % 1,895m 9.2°C
14:00 14.0°C 0.0 mm 51% 9 mph 18 mph 0.00 cm % 1,870m 8.8°C
15:00 13.7°C 0.0 mm 64% 9 mph 18 mph 0.00 cm % 1,828m 8.9°C
16:00 13.6°C 0.0 mm 70% 9 mph 17 mph 0.00 cm % 1,816m 9.0°C
17:00 13.6°C 0.0 mm 69% 8 mph 16 mph 0.00 cm % 1,807m 9.2°C
18:00 13.3°C 0.0 mm 72% 7 mph 14 mph 0.00 cm % 1,772m 9.1°C
19:00 13.0°C 0.0 mm 100% 5 mph 11 mph 0.00 cm % 2,158m 9.4°C
20:00 12.3°C 0.0 mm 100% 4 mph 8 mph 0.00 cm % 2,052m 9.3°C
21:00 11.9°C 0.0 mm 100% 4 mph 9 mph 0.00 cm % 1,979m 9.1°C
22:00 11.8°C 0.0 mm 97% 4 mph 7 mph 0.00 cm % 1,971m 9.4°C
23:00 11.6°C 0.0 mm 92% 4 mph 7 mph 0.00 cm % 1,930m 9.4°C
Fri 09th 00:00 11.5°C 0.0 mm 83% 4 mph 7 mph 0.00 cm % 2,292m 9.5°C
01:00 11.3°C mist/fog in vicinity 0.0 mm 33% 3 mph 6 mph 0.00 cm % 2,268m 9.5°C poor vis, mist
02:00 11.2°C 0.0 mm 49% 3 mph 6 mph 0.00 cm % 2,246m 9.4°C
03:00 11.2°C mist/fog in vicinity 0.0 mm 66% 2 mph 5 mph 0.00 cm % 2,242m 9.4°C poor vis, mist
04:00 11.1°C mist/fog 0.0 mm 71% 1 mph 2 mph 0.00 cm % 2,218m 9.3°C poor vis, mist
05:00 11.3°C mist/fog 0.0 mm 65% 1 mph 1 mph 0.00 cm % 2,262m 9.5°C poor vis, mist
06:00 12.1°C mist/fog in vicinity 0.0 mm 57% 1 mph 2 mph 0.00 cm % 2,008m 9.7°C poor vis, mist
07:00 12.7°C mist/fog in vicinity 0.0 mm 62% 1 mph 2 mph 0.00 cm % 2,112m 9.7°C poor vis, mist
08:00 13.5°C mist/fog in vicinity 0.0 mm 78% 1 mph 2 mph 0.00 cm % 2,250m 9.7°C poor vis, mist
09:00 14.0°C mist/fog in vicinity 0.0 mm 84% 2 mph 4 mph 0.00 cm % 1,868m 9.6°C poor vis, mist
10:00 14.2°C rainfall in vicinity 0.1 mm 88% 3 mph 6 mph 0.00 cm % 1,893m 9.8°C
11:00 14.7°C rainfall in vicinity 0.1 mm 90% 4 mph 8 mph 0.00 cm % 1,955m 9.9°C
12:00 14.8°C rainfall in vicinity 0.2 mm 89% 6 mph 11 mph 0.00 cm % 1,975m 10.0°C
13:00 14.8°C rainfall in vicinity 0.2 mm 86% 7 mph 13 mph 0.00 cm % 1,967m 10.2°C
14:00 14.6°C rainfall in vicinity 0.1 mm 90% 9 mph 17 mph 0.00 cm % 1,943m 10.2°C
15:00 14.8°C 0.0 mm 91% 9 mph 18 mph 0.00 cm % 1,972m 10.0°C
16:00 14.7°C 0.0 mm 93% 9 mph 17 mph 0.00 cm % 1,956m 10.1°C
17:00 14.4°C 0.0 mm 93% 9 mph 17 mph 0.00 cm % 1,921m 9.8°C
18:00 13.9°C 0.0 mm 94% 9 mph 17 mph 0.00 cm % 2,319m 9.9°C
19:00 13.4°C 0.0 mm 100% 8 mph 16 mph 0.00 cm % 2,235m 10.0°C
20:00 12.7°C 0.0 mm 100% 8 mph 15 mph 0.00 cm % 2,117m 9.7°C
21:00 12.2°C 0.0 mm 100% 7 mph 13 mph 0.00 cm % 2,027m 9.4°C
22:00 12.1°C 0.0 mm 100% 7 mph 13 mph 0.00 cm % 2,012m 9.1°C
23:00 12.1°C 0.0 mm 100% 6 mph 12 mph 0.00 cm % 2,021m 8.7°C
Sat 10th 00:00 12.0°C 0.0 mm 100% 6 mph 12 mph 0.00 cm % 2,000m 8.6°C
01:00 11.9°C 0.0 mm 100% 7 mph 14 mph 0.00 cm % 1,975m 8.5°C
02:00 11.8°C 0.0 mm 100% 6 mph 12 mph 0.00 cm % 1,973m 8.4°C
03:00 11.7°C rainfall in vicinity 0.2 mm 100% 7 mph 13 mph 0.00 cm % 1,942m 8.5°C
04:00 11.5°C rainfall in vicinity 0.2 mm 100% 6 mph 11 mph 0.00 cm % 1,913m 8.5°C
05:00 11.5°C rainfall in vicinity 0.1 mm 99% 6 mph 11 mph 0.00 cm % 1,923m 8.5°C
06:00 12.0°C 0.0 mm 98% 6 mph 12 mph 0.00 cm % 1,998m 8.8°C
07:00 12.5°C 0.0 mm 91% 7 mph 13 mph 0.00 cm % 2,087m 8.7°C
08:00 13.1°C 0.0 mm 80% 7 mph 13 mph 0.00 cm % 1,741m 8.9°C
09:00 13.6°C 0.0 mm 71% 6 mph 12 mph 0.00 cm % 1,815m 9.0°C
10:00 13.9°C 0.0 mm 70% 7 mph 13 mph 0.00 cm % 1,857m 9.1°C
11:00 13.7°C 0.0 mm 73% 7 mph 13 mph 0.00 cm % 1,832m 9.3°C
12:00 13.8°C 0.0 mm 75% 7 mph 13 mph 0.00 cm % 1,835m 9.6°C
13:00 13.7°C 0.0 mm 93% 7 mph 14 mph 0.00 cm % 1,824m 9.3°C
14:00 13.7°C 0.0 mm 96% 8 mph 16 mph 0.00 cm % 1,830m 9.1°C
15:00 14.2°C 0.0 mm 97% 8 mph 16 mph 0.00 cm % 1,897m 9.2°C
16:00 14.4°C 0.0 mm 86% 8 mph 16 mph 0.00 cm % 1,924m 9.2°C
17:00 14.3°C 0.0 mm 71% 8 mph 16 mph 0.00 cm % 1,908m 9.3°C
18:00 13.9°C 0.0 mm 62% 8 mph 15 mph 0.00 cm % 1,850m 8.9°C
19:00 13.5°C 0.0 mm 13% 7 mph 13 mph 0.00 cm % 1,793m 8.9°C
20:00 12.6°C 0.0 mm 13% 5 mph 10 mph 0.00 cm % 2,095m 9.0°C
21:00 12.0°C 0.0 mm 13% 4 mph 8 mph 0.00 cm % 1,992m 8.8°C
22:00 11.8°C 0.0 mm 12% 4 mph 8 mph 0.00 cm % 1,963m 8.6°C
23:00 11.6°C 0.0 mm 12% 2 mph 4 mph 0.00 cm % 1,940m 8.4°C
Sun 11th 00:00 11.5°C 0.0 mm 21% 3 mph 6 mph 0.00 cm % 1,913m 8.3°C
01:00 11.4°C 0.0 mm 38% 2 mph 5 mph 0.00 cm % 1,902m 8.2°C
02:00 11.1°C 0.0 mm 31% 2 mph 4 mph 0.00 cm % 1,856m 7.9°C
03:00 10.9°C 0.0 mm 53% 3 mph 6 mph 0.00 cm % 1,817m 7.7°C
04:00 10.7°C 0.0 mm 65% 4 mph 7 mph 0.00 cm % 1,775m 7.7°C
05:00 11.3°C 0.0 mm 72% 5 mph 9 mph 0.00 cm % 1,881m 7.9°C
06:00 11.7°C 0.0 mm 77% 6 mph 11 mph 0.00 cm % 1,942m 8.1°C
07:00 12.7°C 0.0 mm 44% 7 mph 13 mph 0.00 cm % 1,690m 8.3°C
08:00 13.5°C 0.0 mm 72% 6 mph 11 mph 0.00 cm % 1,796m 8.7°C
09:00 14.5°C 0.0 mm 79% 4 mph 9 mph 0.00 cm % 1,930m 9.1°C
10:00 15.0°C 0.0 mm 83% 4 mph 7 mph 0.00 cm % 1,995m 9.0°C
11:00 15.0°C 0.0 mm 87% 5 mph 10 mph 0.00 cm % 2,003m 9.0°C
12:00 14.5°C 0.0 mm 89% 4 mph 9 mph 0.00 cm % 1,933m 8.9°C
13:00 14.6°C mist/fog in vicinity 0.0 mm 100% 1 mph 2 mph 0.00 cm % 1,950m 8.8°C poor vis, mist
14:00 16.3°C mist/fog in vicinity 0.0 mm 100% 1 mph 2 mph 0.00 cm % 1,631m 9.7°C poor vis, mist
15:00 15.8°C light rain 0.3 mm 100% 4 mph 9 mph 0.00 cm % 2,107m 10.2°C
16:00 14.8°C light rain 0.3 mm 100% 5 mph 9 mph 0.00 cm % 1,968m 10.6°C
17:00 14.7°C light rain 0.3 mm 100% 5 mph 9 mph 0.00 cm % 1,960m 10.5°C
18:00 14.4°C light rain 0.3 mm 100% 5 mph 10 mph 0.00 cm % 2,406m 10.4°C
19:00 13.9°C light rain 0.3 mm 100% 5 mph 10 mph 0.00 cm % 2,320m 10.9°C
20:00 13.2°C rainfall in vicinity 0.1 mm 100% 4 mph 9 mph 0.00 cm % 2,196m 10.6°C
21:00 12.4°C mist/fog in vicinity 0.0 mm 100% 3 mph 5 mph 0.00 cm % 2,070m 10.2°C poor vis, mist
22:00 12.1°C mist/fog in vicinity 0.0 mm 100% 2 mph 4 mph 0.00 cm % 2,015m 9.9°C poor vis, mist
23:00 12.1°C 0.0 mm 100% 4 mph 8 mph 0.00 cm % 2,012m 9.9°C
Mon 12th 00:00 12.4°C 0.0 mm 100% 5 mph 9 mph 0.00 cm % 2,058m 10.2°C
01:00 12.3°C rainfall in vicinity 0.2 mm 100% 5 mph 9 mph 0.00 cm % 2,468m 10.3°C
02:00 12.1°C light rain 0.9 mm 100% 6 mph 11 mph 0.00 cm % 2,418m 10.5°C
03:00 11.9°C moderate rain 1.9 mm 100% 8 mph 15 mph 0.00 cm % 2,372m 10.7°C
04:00 11.7°C moderate rain 1.6 mm 100% 10 mph 20 mph 0.00 cm % 2,334m 10.1°C
05:00 11.3°C moderate rain 1.0 mm 100% 10 mph 20 mph 0.00 cm % 2,256m 9.3°C
06:00 11.0°C light rain 0.6 mm 100% 10 mph 20 mph 0.00 cm % 1,825m 8.4°C
07:00 10.9°C light rain 0.3 mm 100% 10 mph 19 mph 0.00 cm % 1,819m 7.9°C
08:00 10.9°C light rain 0.4 mm 100% 9 mph 18 mph 0.00 cm % 1,821m 7.9°C
09:00 11.0°C light rain 0.4 mm 100% 10 mph 20 mph 0.00 cm % 1,827m 8.0°C
10:00 11.1°C light rain 0.3 mm 100% 10 mph 20 mph 0.00 cm % 1,848m 7.9°C